Total_Precipitation_Accumulation
0.06 0.24 0.57 0.87 1.43 1.72 1.35 0.82 0.52 0.32 0.36 0.45 0.55 0.67 0.69 0.79 1.11 1.81 1.58 1.16 1.08 1.27 1.31 1.43 1.60 1.54 1.73 1.91 1.96 2.06 2.28 2.44 2.38 2.10 2.13 2.38 2.62 2.77 2.85 2.84 2.88 3.06 3.41 3.58 3.45 3.21 3.04 2.87 2.75
0.16 0.49 0.79 1.16 1.63 1.39 1.10 0.66 0.37 0.28 0.30 0.41 0.47 0.45 0.46 0.47 0.50 0.79 1.16 1.05 0.92 0.97 1.00 1.19 1.45 1.49 1.54 1.68 1.77 1.87 2.02 2.18 2.19 2.03 1.99 2.23 2.53 2.73 2.89 2.94 2.90 3.03 3.34 3.67 3.54 3.26 3.06 2.85 2.61
0.32 0.56 0.91 1.27 1.22 0.86 0.70 0.43 0.32 0.31 0.37 0.47 0.46 0.41 0.45 0.62 0.53 0.66 0.90 0.87 0.82 0.84 0.92 1.27 1.42 1.42 1.43 1.49 1.59 1.74 1.81 1.87 1.92 1.89 1.98 2.24 2.54 2.77 2.86 2.80 2.81 2.90 3.15 3.43 3.47 3.10 2.71 2.52 2.42
0.41 0.66 0.88 0.96 0.70 0.49 0.41 0.32 0.27 0.27 0.41 0.57 0.61 0.49 0.44 0.52 0.52 0.58 0.68 0.71 0.81 0.93 1.00 1.23 1.40 1.32 1.35 1.41 1.46 1.61 1.69 1.78 1.89 1.93 1.99 2.31 2.55 2.69 2.70 2.51 2.48 2.65 2.80 3.02 3.06 2.75 2.37 2.30 2.40
0.49 0.79 0.96 0.68 0.45 0.37 0.32 0.27 0.24 0.27 0.35 0.59 0.69 0.71 0.72 0.70 0.54 0.52 0.64 0.68 0.73 0.87 1.06 1.23 1.29 1.17 1.16 1.20 1.31 1.54 1.67 1.78 1.95 1.99 2.14 2.38 2.60 2.67 2.65 2.48 2.60 2.60 2.71 2.87 2.72 2.53 2.41 2.55 2.61
0.64 0.80 0.69 0.51 0.32 0.26 0.25 0.25 0.29 0.32 0.47 0.58 0.61 0.73 0.94 0.90 0.69 0.56 0.65 0.73 0.82 0.86 1.02 1.22 1.24 1.11 1.09 1.19 1.33 1.49 1.65 1.77 1.93 1.98 2.11 2.40 2.65 2.61 2.41 2.39 2.55 2.47 2.62 2.69 2.53 2.33 2.30 2.47 2.61
0.51 0.55 0.43 0.41 0.34 0.28 0.22 0.22 0.34 0.38 0.64 0.78 0.82 0.80 1.05 1.11 0.81 0.70 0.80 0.88 0.95 0.89 1.01 1.13 1.18 1.12 1.11 1.24 1.46 1.61 1.69 1.83 1.94 1.92 2.04 2.41 2.56 2.52 2.38 2.34 2.41 2.45 2.58 2.42 2.25 2.24 2.17 2.24 2.50
0.28 0.33 0.29 0.29 0.30 0.25 0.20 0.21 0.30 0.39 0.56 0.63 0.76 0.93 1.22 1.11 0.84 0.84 0.93 1.04 1.05 1.05 1.14 1.11 1.16 1.07 1.05 1.20 1.59 1.83 1.88 1.98 2.06 2.07 2.21 2.59 2.67 2.61 2.44 2.23 2.31 2.36 2.38 2.31 2.25 2.21 2.20 2.27 2.53
0.22 0.25 0.24 0.21 0.18 0.20 0.15 0.19 0.25 0.40 0.48 0.51 0.65 0.81 1.07 0.87 0.83 0.99 1.22 1.34 1.30 1.28 1.38 1.30 1.33 1.15 1.18 1.26 1.56 1.90 2.01 2.14 2.33 2.44 2.59 2.96 3.11 2.84 2.79 2.44 2.56 2.53 2.50 2.57 2.58 2.50 2.51 2.47 2.69
0.20 0.18 0.14 0.10 0.09 0.13 0.14 0.18 0.26 0.39 0.77 0.96 1.11 1.05 0.91 0.90 0.97 1.09 1.30 1.47 1.50 1.53 1.36 1.37 1.45 1.36 1.46 1.46 1.73 2.25 2.29 2.46 2.74 2.85 2.82 3.10 3.23 3.25 2.80 2.93 3.23 3.24 3.25 3.29 3.34 3.33 3.13 2.70 2.57
0.15 0.11 0.07 0.06 0.05 0.07 0.11 0.18 0.19 0.34 0.91 1.44 1.56 1.23 0.89 1.02 1.21 1.42 1.51 1.59 1.52 1.57 1.41 1.52 1.64 1.77 1.84 2.10 1.91 2.07 2.47 2.76 2.92 3.08 3.23 3.36 3.08 2.99 2.92 3.20 3.64 3.71 3.65 3.60 3.65 3.68 3.23 3.01 3.05
0.09 0.06 0.06 0.05 0.05 0.07 0.10 0.17 0.21 0.36 0.85 1.25 1.26 1.04 0.90 1.14 1.32 1.61 1.78 1.98 2.06 2.05 2.03 1.99 2.18 2.42 2.43 2.22 2.17 2.04 2.15 2.40 2.80 3.11 3.06 3.22 3.47 3.42 3.19 3.30 3.41 3.53 3.61 3.89 3.65 3.60 3.56 3.48 3.23
0.06 0.05 0.06 0.05 0.06 0.08 0.14 0.17 0.26 0.48 0.59 0.66 0.78 0.82 0.95 1.25 1.56 1.92 2.16 2.42 2.54 2.82 2.97 2.92 2.91 2.87 2.92 2.92 2.78 2.34 2.47 2.43 2.56 3.02 3.10 3.11 3.47 3.63 3.52 3.43 3.59 3.27 3.28 3.67 3.83 3.53 3.59 3.68 3.48
0.06 0.06 0.06 0.07 0.07 0.10 0.13 0.19 0.31 0.57 0.60 0.65 0.72 0.76 0.90 1.35 1.91 2.36 2.46 2.62 2.92 3.57 4.06 3.85 3.69 3.46 3.36 3.41 3.37 3.29 2.94 2.82 2.66 2.98 3.11 3.22 3.53 3.72 3.69 3.58 3.58 3.19 3.05 3.29 3.50 3.43 3.62 3.60 3.52
0.09 0.09 0.11 0.11 0.10 0.16 0.19 0.36 0.51 0.68 0.68 0.68 0.80 0.85 0.95 1.33 1.79 2.49 2.85 3.12 3.44 4.19 4.79 4.59 4.46 4.46 4.26 4.17 3.84 3.45 3.17 2.98 3.18 3.36 3.50 3.54 3.58 3.84 3.90 3.76 3.46 3.26 3.27 3.36 3.35 3.40 3.74 3.53 3.38
0.13 0.16 0.28 0.22 0.16 0.19 0.28 0.71 0.78 0.78 0.71 0.76 0.98 0.91 0.93 1.24 1.75 2.45 3.07 3.58 3.94 4.35 4.82 5.20 4.87 5.27 5.22 4.99 4.59 4.12 3.81 3.79 3.73 3.64 3.79 3.58 3.49 3.61 3.90 3.58 3.23 3.34 3.45 3.55 3.56 3.54 3.72 3.77 3.84
0.19 0.25 0.38 0.35 0.23 0.21 0.31 0.83 0.89 0.67 0.68 0.84 1.00 1.01 1.05 1.31 1.69 2.20 2.85 3.42 4.00 4.61 5.18 5.69 5.90 6.00 5.60 5.27 4.98 4.79 4.47 4.18 3.75 3.36 3.29 3.18 2.94 2.91 3.08 2.94 2.90 2.94 3.09 3.02 2.81 3.20 3.44 3.66 3.86
0.18 0.22 0.29 0.44 0.34 0.25 0.34 0.67 0.79 0.71 0.68 0.86 1.09 1.06 1.13 1.34 1.73 2.15 2.71 3.20 3.86 4.72 5.59 6.07 6.26 5.88 5.47 5.11 4.74 4.67 4.31 3.93 3.57 3.16 2.89 2.70 2.66 2.51 2.69 2.51 2.49 2.65 2.89 2.91 2.96 3.20 3.14 3.08 3.27
0.14 0.20 0.25 0.35 0.29 0.27 0.41 0.66 0.78 0.80 0.83 0.97 1.14 1.15 1.19 1.31 1.70 2.18 2.71 3.21 3.87 4.79 5.76 6.20 6.09 5.51 5.01 4.58 4.17 3.93 3.63 3.36 3.22 2.90 2.53 2.48 2.46 2.49 2.76 2.48 2.71 2.69 2.77 2.78 2.68 2.79 2.76 2.51 2.66
0.15 0.22 0.26 0.33 0.27 0.31 0.45 0.69 0.90 1.00 1.07 1.00 1.05 1.17 1.13 1.30 1.76 2.28 2.88 3.27 3.60 4.14 4.91 5.30 5.04 4.44 3.80 3.53 3.46 3.39 3.34 2.98 2.75 2.65 2.58 2.30 2.32 2.39 2.46 2.58 2.39 2.41 2.56 2.49 2.46 2.73 2.68 2.37 2.46
0.15 0.20 0.26 0.32 0.28 0.38 0.52 0.95 1.23 1.25 1.02 0.81 0.73 0.88 0.91 1.03 1.55 2.29 2.84 3.13 3.40 3.61 3.60 3.76 3.72 3.29 2.96 2.86 2.85 2.88 3.04 2.82 2.53 2.45 2.38 2.14 2.06 2.03 2.17 2.25 2.36 2.46 2.34 2.39 2.43 2.46 2.56 2.50 2.34
0.15 0.13 0.14 0.21 0.32 0.53 0.60 1.36 1.60 1.36 1.13 0.90 0.72 0.73 0.78 0.94 1.40 2.15 2.45 2.57 2.63 2.71 2.51 2.53 2.67 2.59 2.56 2.46 2.47 2.39 2.27 2.26 2.17 2.15 2.11 2.06 1.93 1.85 1.77 1.89 2.10 2.28 2.25 2.47 2.20 2.24 2.46 2.54 2.29
0.14 0.11 0.12 0.20 0.34 0.52 0.73 1.23 1.64 1.46 1.28 0.96 0.71 0.67 0.76 0.84 1.10 1.44 1.51 1.67 1.76 1.81 1.83 2.03 2.34 2.46 2.38 2.31 2.41 2.42 2.14 2.02 1.94 1.98 2.10 2.04 1.92 1.78 1.63 1.72 1.94 2.10 2.17 2.29 2.30 2.54 2.44 2.33 2.28
0.10 0.14 0.20 0.35 0.54 0.93 0.94 1.12 1.57 1.39 1.12 0.78 0.65 0.65 0.58 0.61 0.80 0.99 1.05 1.13 1.21 1.25 1.37 1.61 2.08 2.30 2.20 2.14 2.17 2.14 2.09 2.07 1.98 1.92 1.97 1.94 1.86 1.86 1.84 1.79 1.91 1.93 1.97 2.06 2.17 2.38 2.38 2.32 2.33
0.11 0.16 0.42 0.85 1.29 1.41 0.90 1.06 1.39 1.04 0.76 0.57 0.48 0.50 0.52 0.65 0.72 0.83 1.00 1.06 0.98 0.94 1.08 1.30 1.64 1.80 1.78 1.85 1.96 2.02 2.10 2.07 1.92 1.86 1.80 1.77 1.63 1.71 1.89 1.90 1.93 1.97 2.02 1.99 2.09 2.16 2.15 2.19 2.31
0.13 0.15 0.31 0.60 0.74 0.88 0.88 1.32 1.44 0.85 0.59 0.47 0.43 0.44 0.55 0.64 0.62 0.65 0.75 0.75 0.73 0.81 0.90 1.07 1.25 1.34 1.44 1.56 1.75 1.90 1.93 1.90 1.85 1.97 1.84 1.70 1.52 1.48 1.66 1.84 1.88 1.86 1.82 1.85 2.24 2.04 1.98 2.12 2.21
0.11 0.12 0.14 0.20 0.31 0.63 1.02 1.28 1.18 0.79 0.53 0.42 0.40 0.39 0.49 0.51 0.46 0.46 0.52 0.56 0.62 0.79 0.90 0.97 1.06 1.17 1.29 1.40 1.65 1.79 1.79 1.73 1.76 1.85 1.77 1.61 1.61 1.53 1.60 1.61 1.80 1.88 1.81 1.85 2.08 2.06 2.01 2.12 2.11
0.10 0.10 0.11 0.16 0.33 0.62 0.99 1.39 1.33 0.99 0.70 0.59 0.46 0.38 0.45 0.45 0.41 0.45 0.49 0.56 0.58 0.62 0.80 0.91 0.97 1.12 1.28 1.37 1.43 1.46 1.58 1.56 1.55 1.50 1.49 1.56 1.60 1.58 1.64 1.69 1.67 1.72 1.82 1.93 2.05 1.95 1.88 2.01 2.12
0.09 0.09 0.10 0.12 0.19 0.42 0.82 1.10 0.87 0.73 0.58 0.59 0.54 0.49 0.49 0.51 0.50 0.48 0.56 0.58 0.58 0.59 0.74 0.86 0.92 1.02 1.12 1.14 1.17 1.27 1.35 1.35 1.32 1.32 1.30 1.41 1.47 1.52 1.53 1.57 1.63 1.62 1.71 1.96 2.24 2.13 2.08 2.11 2.16
0.09 0.08 0.09 0.13 0.16 0.23 0.50 0.69 0.51 0.53 0.48 0.54 0.58 0.61 0.63 0.64 0.63 0.62 0.67 0.63 0.66 0.69 0.73 0.82 0.80 0.83 0.90 0.97 1.02 1.09 1.20 1.21 1.20 1.24 1.39 1.47 1.46 1.41 1.32 1.39 1.45 1.41 1.53 1.79 2.09 2.24 2.31 2.38 2.35